DW8163 Charlestown RI US current weather conditions

sailwx.info

Wind from 277

Air temperature 5.6° C
Dewpoint -4.9° C

Last reported at 2019-Dec-16 00:01 UTC.
Time now 2019-Dec-16 00:40 UTC

Location: N 41°25' W 071°38'.
View on Google Maps.

See reports from other nearby stations

  
Tides and Currents Weather Stations Pressure Air Temp Water Temp Dewpoint Dewpoint Depression Visibility Wind Speed Wind Dir Waves Ship Positions
date/time (UTC)wind fromknots sea level pressurealtimeterstation pressurevisibilityair tempwater tempwave heightnotes
2019-Dec-16 00:01 277 5.6
2019-Dec-15 23:31 325 5.0
2019-Dec-15 23:15 206 5.6
2019-Dec-15 23:01 275 5.6
2019-Dec-15 22:45 259 5.6
2019-Dec-15 22:31 328 5.6
2019-Dec-15 22:15 279 6.1
2019-Dec-15 22:01 253 6.1
2019-Dec-15 21:45 234 6.1
2019-Dec-15 21:30 217 6.1
2019-Dec-15 21:15 209 6.7
2019-Dec-15 21:00 290 6.7
2019-Dec-15 20:45 281 7.2
2019-Dec-15 20:30 279 7.8
2019-Dec-15 20:18 253 7.8
2019-Dec-15 20:01 252 7.8
2019-Dec-15 19:46 261 7.8
2019-Dec-15 19:32 246 8.3
2019-Dec-15 19:16 236 8.3
2019-Dec-15 19:02 240 7.8
2019-Dec-15 18:46 280 7.8
2019-Dec-15 18:32 265 7.8
2019-Dec-15 18:16 271 8.3
2019-Dec-15 18:01 230 8.3
2019-Dec-15 17:46 258 8.3
2019-Dec-15 17:32 280 8.9
2019-Dec-15 17:17 315 8.9
2019-Dec-15 17:02 269 8.3
2019-Dec-15 16:47 267 8.3
2019-Dec-15 16:31 239 8.3
2019-Dec-15 16:15 248 8.3
2019-Dec-15 16:01 238 8.9
2019-Dec-15 15:47 225 8.3
2019-Dec-15 15:31 236 8.3
2019-Dec-15 15:17 277 8.3
2019-Dec-15 15:00 287 7.8
2019-Dec-15 14:46 242 7.8
2019-Dec-15 14:31 271 7.8
2019-Dec-15 14:15 273 7.2
2019-Dec-15 14:01 257 6.7
2019-Dec-15 13:46 295 6.7
2019-Dec-15 13:31 202 6.1
2019-Dec-15 13:15 258 6.1
2019-Dec-15 13:00 255 6.1
2019-Dec-15 12:45 269 5.6
2019-Dec-15 12:31 225 5.6
2019-Dec-15 12:15 240 5.6
2019-Dec-15 12:00 236 5.6
2019-Dec-15 11:45 248 5.6
2019-Dec-15 11:30 238 5.6
2019-Dec-15 11:18 240 5.6
2019-Dec-15 11:03 241 5.6
2019-Dec-15 10:47 282 5.6
2019-Dec-15 10:32 255 5.6
2019-Dec-15 10:16 198 5.6
2019-Dec-15 10:01 249 5.6
2019-Dec-15 09:46 241 5.6
2019-Dec-15 09:32 180 5.6
2019-Dec-15 09:16 304 5.6
2019-Dec-15 09:01 235 5.6
2019-Dec-15 08:46 285 5.6
2019-Dec-15 08:31 234 5.6
2019-Dec-15 08:17 217 5.6
2019-Dec-15 08:00 260 5.6
2019-Dec-15 07:46 277 5.6
2019-Dec-15 07:31 192 6.1
2019-Dec-15 07:15 292 6.1
2019-Dec-15 07:00 289 6.7
2019-Dec-15 06:45 263 7.2
2019-Dec-15 06:31 267 7.8
2019-Dec-15 06:15 252 7.8
2019-Dec-15 06:00 258 7.8
2019-Dec-15 05:45 198 8.3
2019-Dec-15 05:31 277 8.9
2019-Dec-15 05:17 229 8.9
2019-Dec-15 05:01 201 8.9
2019-Dec-15 04:48 223 8.9
2019-Dec-15 04:32 248 9.4
2019-Dec-15 04:16 220 9.4
2019-Dec-15 04:01 277 9.4
2019-Dec-15 03:47 269 9.4
2019-Dec-15 03:32 245 10.0
2019-Dec-15 03:17 212 10.0
2019-Dec-15 03:01 256 10.0
2019-Dec-15 02:46 212 10.6
2019-Dec-15 02:32 219 10.6
2019-Dec-15 02:16 239 10.6
2019-Dec-15 02:01 217 11.1
2019-Dec-15 01:46 244 11.1
2019-Dec-15 01:31 188 11.1
2019-Dec-15 01:17 229 11.7
2019-Dec-15 01:01 204 11.7
2019-Dec-15 00:47 215 12.2
2019-Dec-15 00:32 209 12.2
2019-Dec-15 00:17 263 12.8
2019-Dec-15 00:01 221 12.8
2019-Dec-14 23:45 217 12.8
2019-Dec-14 23:31 131 13.3
2019-Dec-14 23:15 157 13.3
2019-Dec-14 23:01 159 13.3
2019-Dec-14 22:46 222 13.3
2019-Dec-14 22:31 228 13.3
2019-Dec-14 22:16 181 13.3
2019-Dec-14 22:00 167 13.3
2019-Dec-14 21:45 160 13.3
2019-Dec-14 21:31 190 13.3
2019-Dec-14 21:01 179 13.9
2019-Dec-14 20:45 184 13.9
2019-Dec-14 20:30 190 13.9
2019-Dec-14 20:16 209 13.9
2019-Dec-14 20:02 190 13.9
2019-Dec-14 19:46 168 13.3
2019-Dec-14 19:30 170 13.9
2019-Dec-14 19:15 178 13.9
2019-Dec-14 19:00 200 13.9
2019-Dec-14 18:45 215 13.9
2019-Dec-14 18:30 163 13.9
2019-Dec-14 18:16 232 13.9
2019-Dec-14 18:00 188 13.9
2019-Dec-14 17:48 179 13.9
2019-Dec-14 17:31 188 13.9
2019-Dec-14 17:17 186 13.9
2019-Dec-14 17:01 212 13.9
2019-Dec-14 16:47 227 13.9
2019-Dec-14 16:32 167 14.4
2019-Dec-14 16:16 217 14.4
2019-Dec-14 16:02 198 14.4
2019-Dec-14 15:47 168 15.0
2019-Dec-14 15:31 188 15.0
2019-Dec-14 15:16 179 15.0
2019-Dec-14 15:01 254 14.4
2019-Dec-14 14:47 148 14.4
2019-Dec-14 14:31 107 14.4
2019-Dec-14 14:16 180 14.4
2019-Dec-14 14:01 130 13.9
2019-Dec-14 13:47 136 13.9
2019-Dec-14 13:30 119 13.9
2019-Dec-14 13:15 119 13.9
2019-Dec-14 13:00 123 13.9
2019-Dec-14 12:45 150 13.9
2019-Dec-14 12:30 124 13.3
2019-Dec-14 12:15 130 13.3
2019-Dec-14 12:00 140 13.3
2019-Dec-14 11:45 113 12.8
2019-Dec-14 11:30 134 12.8
2019-Dec-14 10:49 116 12.2
2019-Dec-14 10:32 123 12.2
2019-Dec-14 10:17 106 12.2
2019-Dec-14 10:02 113 12.2
2019-Dec-14 09:47 131 12.2
2019-Dec-14 09:32 104 12.2
2019-Dec-14 09:01 130 12.2
2019-Dec-14 08:46 117 11.7
2019-Dec-14 08:32 138 12.2
2019-Dec-14 08:16 121 11.7
2019-Dec-14 08:00 092 11.7
2019-Dec-14 07:45 123 11.7
2019-Dec-14 07:30 117 11.7
2019-Dec-14 07:15 119 11.7
2019-Dec-14 07:00 107 11.7
2019-Dec-14 06:45 078 11.1
2019-Dec-14 06:30 099 10.6
2019-Dec-14 06:15 095 10.6
2019-Dec-14 06:00 067 10.6
2019-Dec-14 05:45 083 10.6
2019-Dec-14 05:30 081 10.0
2019-Dec-14 05:17 089 10.0
2019-Dec-14 05:01 091 10.0
2019-Dec-14 04:47 076 9.4
2019-Dec-14 04:31 080 9.4
2019-Dec-14 04:16 092 9.4
2019-Dec-14 04:02 077 8.9
2019-Dec-14 03:46 072 8.9
2019-Dec-14 03:31 077 8.9
2019-Dec-14 03:16 080 8.3
2019-Dec-14 03:02 069 7.8
2019-Dec-14 02:46 020 6.7
2019-Dec-14 02:30 031 6.7
2019-Dec-14 02:15 033 7.2
2019-Dec-14 02:00 037 6.7
2019-Dec-14 01:45 038 6.7
2019-Dec-14 01:30 052 6.1
2019-Dec-14 01:15 027 6.1
2019-Dec-14 01:00 026 6.7
2019-Dec-14 00:45 017 6.7
2019-Dec-14 00:30 060 6.7
2019-Dec-14 00:16 050 6.1
2019-Dec-14 00:00 043 5.6